Showing default

OPS 9441 (DSCS 2-11), 11144

Orbit data source: Space-Track

OPS 9441 (DSCS 2-11), 11144 is an American payload satellite in GEO that was launched on Thu, 14 Dec 1978 UTC via a TITAN IIIC launch vehicle from the Air Force Eastern Test Range (AFETR). Payload-class satellites include a variety of spacecraft equipped with specific instruments for various scientific and technological missions. These include communications satellites like Starlink; space stations such as the ISS; scientific satellites like the Hubble; Earth observation satellites from companies like Planet Labs, Umbra, and HawkEye 360; GPS; miniature CubeSats for education and research; and military/defense satellites.

Loading next visibility...
Identifier
11144, 1978-113A
Orbit
GEO
Country
Flag of USUS
Related business
Manufacturer
TRW
Mission
Non-operational spacecraft
Bus & Motor
DSCS II, AOCS
Mass
~610 kg wet, ~550 kg dry
Launch date (UTC)
1978-12-14 (48 years ago)
Launch vehicle
TITAN IIIC
Launch site
Air Force Eastern Test Range (AFETR)
Object type
Payload
Rocket body
Debris
Shape & HBR
Unknown
Radar Cross Section
Large (>1 m²)

Expand to show TLE details & history
Last TLE update: 2 days ago

TLE from 2 days ago
0 OPS 9441 (DSCS 2-11)
1 11144U 78113A   26171.37733707 -.00000110  00000-0  00000+0 0  9997
2 11144  10.7696 314.9511 0024900 202.5815 173.5334  0.94032164111585
Epoch: 2026-06-20T09:03Z
TLE epoch observation values (Epoch: 2026-06-20T09:03:21.922Z)
Latitude
2.97865°
Longitude
-73.61953°
Altitude
37,739.587 km
Speed
3.002 km/s
True Right ascension
22h 03m 15s
True Declination
2° 58' 33"
Sunlit
Object was in daylight at epoch
Visualization orbit readout
Latitude
Unknown
Longitude
Unknown
Altitude
Unknown
Speed
Unknown
Apparent Right ascension
Unknown
Apparent Declination
Unknown
Sunlit
N/A
Visualization observer readout
Local Sidereal Time
23:26:51
Azimuth
Unknown
Elevation
Unknown
Doppler factor
Unknown
Orbital elements
Apogee altitude
37,742.377 km
Perigee altitude
37,523.202 km
Semi-major axis
44,010.927 km
Eccentricity
0.00249
Inclination
10.7696°
RAAN
314.9511°
Arg. of periapsis
202.5815°
True anomaly
173.56544°
Mean anomaly
173.5334°
Eccentric anomaly
173.54943°
Mean motion
0.23507 °/min
Orbital period
1,531.44 mins
BSTAR
0
Loading maneuver chart data...
Computing Atmospheric mass density...
Loading historical data...
Loading historical data...
Loading historical data...
Loading historical data...
Loading historical data...
Loading historical data...
Loading historical data...

Documentation

Showing up to 5 results
|